| time (UTC) | temp F | wind direction | speed knots | gust knots | rain 1hr in | rain 24hr in | rain mn in | humidity % | barometer mb |
| 20260502184551 | 76 | 30 | 1.7 | 6.1 | 0.00 | 1.77 | 0.00 | 48 | 1020.0 |
| 20260502183045 | 74 | 20 | 2.6 | 8.7 | 0.00 | 1.77 | 0.00 | 50 | 1020.1 |
| 20260502181546 | 75 | 153 | 0.9 | 7.0 | 0.00 | 1.77 | 0.00 | 51 | 1020.3 |
| 20260502163103 | 71 | 65 | 1.7 | 6.1 | 0.00 | 2.39 | 0.00 | 56 | 1020.6 |
| 20260502161549 | 70 | 95 | 0.9 | 4.3 | 0.00 | 2.39 | 0.00 | 60 | 1020.6 |
| 20260502151556 | 67 | 316 | 0.9 | 3.5 | 0.00 | 2.42 | 0.00 | 70 | 1020.5 |
| 20260502123051 | 53 | 0 | 0.0 | 1.7 | 0.00 | 2.64 | 0.00 | 95 | 1018.6 |
| 20260502121547 | 52 | 0 | 0.0 | 0.9 | 0.00 | 2.64 | 0.00 | 94 | 1018.5 |
| 20260502114544 | 52 | 0 | 0.0 | 0.9 | 0.00 | 2.65 | 0.00 | 94 | 1018.3 |
| 20260502113051 | 52 | 0 | 0.0 | 0.9 | 0.00 | 2.65 | 0.00 | 94 | 1018.2 |
| 20260502111545 | 52 | 0 | 0.0 | 1.7 | 0.00 | 2.65 | 0.00 | 94 | 1017.9 |
| 20260502110052 | 53 | 329 | 0.0 | 1.7 | 0.00 | 2.65 | 0.00 | 94 | 1017.9 |
| 20260502104547 | 53 | 0 | 0.0 | 0.9 | 0.00 | 2.73 | 0.00 | 93 | 1017.7 |
| 20260502103044 | 53 | 0 | 0.0 | 0.0 | 0.00 | 2.73 | 0.00 | 93 | 1017.7 |
| 20260502101559 | 53 | 0 | 0.0 | 0.9 | 0.00 | 2.73 | 0.00 | 92 | 1017.5 |
| 20260502100110 | 53 | 0 | 0.0 | 1.7 | 0.00 | 2.73 | 0.00 | 92 | 1017.0 |
| 20260502070050 | 55 | 307 | 0.0 | 1.7 | 0.00 | 3.35 | 0.00 | 95 | 1016.3 |
| 20260502064546 | 55 | 0 | 0.0 | 3.5 | 0.00 | 3.44 | 0.00 | 95 | 1016.1 |
| 20260502063047 | 55 | 269 | 0.9 | 4.3 | 0.00 | 3.44 | 0.00 | 96 | 1015.9 |
| 20260502061553 | 55 | 304 | 0.0 | 4.3 | 0.00 | 3.44 | 0.00 | 96 | 1015.9 |
| 20260502060044 | 55 | 10 | 0.0 | 4.3 | 0.00 | 3.44 | 0.00 | 96 | 1015.8 |
| 20260502054545 | 55 | 53 | 0.0 | 8.7 | 0.00 | 3.70 | 0.00 | 97 | 1015.9 |
| 20260502053047 | 55 | 0 | 0.0 | 2.6 | 0.00 | 3.70 | 0.00 | 97 | 1015.9 |
| 20260502051542 | 55 | 55 | 0.0 | 3.5 | 0.00 | 3.70 | 0.00 | 97 | 1015.8 |
| 20260502050050 | 56 | 0 | 0.0 | 2.6 | 0.00 | 3.70 | 0.00 | 97 | 1015.8 |
| 20260502044543 | 55 | 0 | 0.0 | 2.6 | 0.00 | 3.70 | 3.70 | 97 | 1015.9 |
| 20260502043052 | 55 | 34 | 0.0 | 2.6 | 0.00 | 3.70 | 3.70 | 97 | 1015.9 |
| 20260502041553 | 55 | 80 | 0.9 | 4.3 | 0.00 | 3.70 | 3.70 | 97 | 1015.9 |
| 20260502040044 | 56 | 288 | 0.9 | 4.3 | 0.01 | 3.70 | 3.70 | 97 | 1015.9 |
| 20260502034546 | 56 | 232 | 0.0 | 6.1 | 0.01 | 3.70 | 3.70 | 97 | 1015.6 |
| 20260502033043 | 56 | 295 | 1.7 | 5.2 | 0.02 | 3.70 | 3.70 | 97 | 1015.4 |
| 20260502031549 | 56 | 289 | 0.9 | 5.2 | 0.02 | 3.70 | 3.70 | 97 | 1015.0 |
| 20260502030045 | 56 | 130 | 0.9 | 4.3 | 0.02 | 3.69 | 3.69 | 97 | 1014.3 |
| 20260502024553 | 56 | 0 | 0.0 | 3.5 | 0.03 | 3.69 | 3.69 | 97 | 1014.4 |
| 20260502023045 | 56 | 81 | 0.9 | 4.3 | 0.02 | 3.68 | 3.68 | 97 | 1014.1 |
| 20260502021547 | 56 | 47 | 0.0 | 6.1 | 0.04 | 3.68 | 3.68 | 97 | 1014.3 |
| 20260502020043 | 57 | 69 | 0.9 | 4.3 | 0.07 | 3.67 | 3.67 | 97 | 1013.8 |
| 20260502014546 | 58 | 352 | 0.9 | 6.1 | 0.06 | 3.66 | 3.66 | 97 | 1013.7 |
| 20260502013044 | 58 | 0 | 0.0 | 2.6 | 0.08 | 3.66 | 3.66 | 97 | 1013.1 |
| 20260502011546 | 58 | 51 | 0.9 | 5.2 | 0.08 | 3.64 | 3.64 | 97 | 1012.7 |
| 20260502010041 | 58 | 293 | 0.9 | 4.3 | 0.09 | 3.60 | 3.60 | 97 | 1013.3 |
| 20260502004543 | 58 | 0 | 0.0 | 5.2 | 0.12 | 3.60 | 3.60 | 97 | 1012.1 |
| 20260502003049 | 58 | 27 | 0.0 | 3.5 | 0.12 | 3.58 | 3.58 | 97 | 1012.0 |
| 20260502001546 | 58 | 56 | 0.0 | 4.3 | 0.21 | 3.56 | 3.56 | 97 | 1012.2 |
| 20260502000050 | 58 | 278 | 0.9 | 4.3 | 0.24 | 3.50 | 3.50 | 97 | 1012.1 |
| 20260501234547 | 58 | 274 | 0.9 | 6.1 | 0.22 | 3.48 | 3.48 | 97 | 1011.8 |
| 20260501233043 | 58 | 103 | 0.9 | 5.2 | 0.20 | 3.46 | 3.46 | 97 | 1011.1 |
| 20260501231543 | 59 | 1 | 0.9 | 3.5 | 0.09 | 3.34 | 3.34 | 97 | 1011.7 |
| 20260501230056 | 59 | 342 | 0.9 | 3.5 | 0.06 | 3.26 | 3.26 | 97 | 1011.5 |
| 20260501224545 | 60 | 0 | 0.9 | 7.0 | 0.07 | 3.26 | 3.26 | 97 | 1010.5 |
| 20260501223046 | 60 | 85 | 0.9 | 5.2 | 0.12 | 3.26 | 3.26 | 97 | 1010.7 |
| 20260501221543 | 61 | 93 | 0.0 | 2.6 | 0.16 | 3.25 | 3.25 | 97 | 1010.9 |
| 20260501220048 | 62 | 85 | 0.0 | 2.6 | 0.15 | 3.20 | 3.20 | 98 | 1011.4 |
| 20260501214554 | 61 | 0 | 0.9 | 5.2 | 0.20 | 3.19 | 3.19 | 98 | 1011.2 |
| 20260501213045 | 61 | 281 | 0.9 | 2.6 | 0.24 | 3.14 | 3.14 | 97 | 1011.5 |
| 20260501211553 | 61 | 7 | 0.9 | 4.3 | 0.30 | 3.09 | 3.09 | 97 | 1011.0 |
| 20260501210048 | 61 | 0 | 0.0 | 5.2 | 0.28 | 3.05 | 3.05 | 97 | 1009.8 |
| 20260501204619 | 61 | 60 | 1.7 | 4.3 | 0.22 | 2.99 | 2.99 | 97 | 1009.7 |
| 20260501203047 | 61 | 308 | 0.0 | 4.3 | 0.14 | 2.90 | 2.90 | 97 | 1010.5 |
| 20260501201547 | 61 | 271 | 0.9 | 4.3 | 0.17 | 2.79 | 2.79 | 97 | 1010.2 |
| 20260501200044 | 61 | 0 | 0.0 | 2.6 | 0.16 | 2.77 | 2.77 | 97 | 1009.7 |
| 20260501194544 | 62 | 260 | 0.0 | 1.7 | 0.28 | 2.77 | 2.77 | 97 | 1009.4 |
| 20260501193047 | 62 | 0 | 0.0 | 2.6 | 0.47 | 2.76 | 2.76 | 97 | 1009.4 |
| 20260501191543 | 62 | 316 | 0.0 | 4.3 | 0.40 | 2.62 | 2.62 | 97 | 1009.7 |
| 20260501190046 | 62 | 118 | 0.9 | 5.2 | 0.68 | 2.61 | 2.61 | 97 | 1008.8 |